Starlink 3090

operational
NORAD ID: 49132 Int'l Des: 2021-082 Owner: SPXS Country: US Constellation: starlink
LEOCIRCULAR

About Starlink 3090

Description loading...

Live Position

Loading 3D Globe...

Upcoming Passes

Altitude History

Altitude vs Time

uPlot chart will show altitude changes over time

Two-Line Element Set

1 49132U 21082C 25344.44752671 .00000346 00000-0 36788-4 0 9995
2 49132 69.9996 159.3384 0002639 271.2321 88.8536 14.98337824232611
Epoch: Dec 10, 2025 • Age: 11 hours

Current Status

Altitude 593.8 km
Velocity 7.56 km/s
Sub-Earth Point -62.83°S, 68.88°E
Launch Date Sep 14, 2021
Age 4.2 years
Type internet

Technical Details

Classification Payload
Mass 297.00 kg
Dry Mass 275.00 kg
Total Mass 297.00 kg
Length 0.20 m
Diameter 2.80 m
Span 9.00 m
Shape Box + pan
Manufacturer SPXS
Bus Type Starlink
Phase Status In Orbit
Owner/State SPXS/US

Large Constellations

Loading constellations...